This is the latest recevied weather packets stored in our database for station/object 9A7DI-13. If no packets are shown the sender has not sent any weather packets the latest 10 day(s).
| Time | Temp. | Humidity | Pressure | Rain* | Wind** | Luminosity | Snow |
|---|---|---|---|---|---|---|---|
| 1777829232 | 19.44° C | 38% | 1026.2 hPa | - | - | - | - |
| 1777828632 | 20° C | 37% | 1026.1 hPa | - | - | - | - |
| 1777828032 | 20.56° C | 35% | 1026.1 hPa | - | - | - | - |
| 1777827432 | 20.56° C | 35% | 1026 hPa | - | - | - | - |
| 1777826832 | 21.11° C | 34% | 1026.1 hPa | - | - | - | - |
| 1777826232 | 21.11° C | 33% | 1026 hPa | - | - | - | - |
| 1777825632 | 21.11° C | 31% | 1026 hPa | - | - | - | - |
| 1777825032 | 21.11° C | 33% | 1026 hPa | - | - | - | - |
| 1777824432 | 21.67° C | 31% | 1026 hPa | - | - | - | - |
| 1777823832 | 21.67° C | 31% | 1026 hPa | - | - | - | - |
| 1777823232 | 21.67° C | 32% | 1026.1 hPa | - | - | - | - |
| 1777822632 | 22.22° C | 31% | 1026.1 hPa | - | - | - | - |
| 1777822032 | 21.67° C | 31% | 1026.2 hPa | - | - | - | - |
| 1777821433 | 22.22° C | 32% | 1026.2 hPa | - | - | - | - |
| 1777820833 | 22.22° C | 32% | 1026.2 hPa | - | - | - | - |
| 1777820232 | 21.67° C | 32% | 1026.3 hPa | - | - | - | - |
| 1777819632 | 22.22° C | 32% | 1026.3 hPa | - | - | - | - |
| 1777819033 | 21.67° C | 31% | 1026.5 hPa | - | - | - | - |
| 1777818432 | 21.67° C | 31% | 1026.6 hPa | - | - | - | - |
| 1777817833 | 21.67° C | 32% | 1026.6 hPa | - | - | - | - |
| 1777817232 | 22.22° C | 33% | 1026.7 hPa | - | - | - | - |
| 1777816632 | 22.22° C | 32% | 1026.8 hPa | - | - | - | - |
| 1777816033 | 21.67° C | 33% | 1027 hPa | - | - | - | - |
| 1777815433 | 21.67° C | 31% | 1027 hPa | - | - | - | - |
| 1777814833 | 22.22° C | 31% | 1027.1 hPa | - | - | - | - |
* Rain since midnight (hover to see other rain measurements)
** Current wind speed in m/s (hover to see current wind gust speed)